Tracking 18665 objects as of 22-June-2017
HD Live streaming from Space Station
objects crossing your sky now

NOAA 4

Track NOAA 4 now!
10-day predictions
NOAA 4 is classified as:


NORAD ID: 7529
Int'l Code: 1974-089A
Perigee: 1,451.6 km
Apogee: 1,465.7 km
Inclination: 101.6 °
Period: 114.9 minutes
Semi major axis: 7829 km
RCS: 3.1879 m2 (large)
Launch date: November 15, 1974
Source: United States (US)
Launch site: AIR FORCE WESTERN TEST RANGE (AFWTR)
Your satellite tracking list
Your tracking list is empty





NASA's NSSDC Master Catalog

Two Line Element Set (TLE):
1  7529U 74089A   17172.86459444 -.00000046 +00000-0 -11575-4 0  9998
2  7529 101.6400 141.5986 0009060 014.2730 014.1859 12.53110324948385
Source of the keplerian elements: AFSPC